Location: Unspecified
(58.9933°N, 5.6375°E)
Time: 02:59:21
(UTC+02:00)

Resurs 1-4 Rocket - Visible Passes

Search period start: 22 April 2018 00:00
Search period end: 02 May 2018 00:00
Orbit: 799 x 815 km, 98.5° (Epoch: 19 April)

Date Brightness Start Highest point End Pass type
(mag) Time Alt. Az. Time Alt. Az. Time Alt. Az.
22 Apr 4.1 02:31:00 10° NE 02:34:55 20° E 02:38:47 10° SE visible
22 Apr 2.1 04:10:13 10° NNE 04:15:32 86° ESE 04:20:17 13° SSW visible
23 Apr 4.4 02:07:08 10° NE 02:09:55 14° E 02:12:40 10° ESE visible
23 Apr 2.5 03:45:38 10° NNE 03:50:52 61° ESE 03:55:30 13° S visible
24 Apr 3.0 03:21:07 10° NNE 03:26:08 42° E 03:30:42 12° SSE visible
24 Apr 2.6 05:01:04 10° N 05:06:07 47° WNW 05:11:08 10° SW visible
25 Apr 3.6 02:56:43 10° NNE 03:01:20 30° E 03:05:55 10° SSE visible
25 Apr 2.2 04:36:22 10° NNE 04:41:37 66° WNW 04:46:49 10° SSW visible
26 Apr 4.0 02:32:29 10° NE 02:36:25 21° E 02:40:22 10° SE visible
26 Apr 2.1 04:11:43 10° NNE 04:17:02 88° ESE 04:22:12 11° SSW visible
27 Apr 4.4 02:08:34 10° NE 02:11:27 15° E 02:14:19 10° ESE visible
27 Apr 2.4 03:47:08 10° NNE 03:52:23 63° ESE 03:57:24 11° S visible
28 Apr 3.0 03:22:37 10° NNE 03:27:39 43° E 03:32:36 10° S visible
29 Apr 3.5 02:58:12 10° NNE 03:02:51 31° E 03:07:29 10° SSE visible
29 Apr 2.3 04:37:52 10° NNE 04:43:06 65° WNW 04:48:18 10° SSW visible
30 Apr 4.0 02:33:56 10° NE 02:37:57 22° E 02:41:57 10° SE visible
30 Apr 2.1 04:13:13 10° NNE 04:18:32 90° SW 04:23:49 10° SSW visible
01 May 4.4 02:10:00 10° NE 02:12:59 15° E 02:15:57 10° ESE visible
01 May 2.4 03:48:38 10° NNE 03:53:53 64° ESE 03:59:07 10° S visible
